Home > Weather > Nanjing > Past weeks

Flag for China Weather for the Past 2 Weeks in Nanjing, Jiangsu, China

Now
45 °F

Fog.


Feels Like: 43 °F
Forecast: 50 / 67 °F
Wind: 3 mph from East

Location: Nanjing

Current Time: Feb 10, 2016 at 9:00:51 AM

Latest Report: Feb 10, 2016 at 8:00 AM


Visibility: 2 mi

Pressure: 30.07 "Hg

Humidity: 81%

Dew point: 39 °F

Location of NanjingLocation

Historic Weather in Nanjing — Graph

°F

Nanjing Temperature Yesterday

Maximum temperature yesterday: 70 °F (at 2:00 PM)
Minimum temperature yesterday: 34 °F (at 6:00 AM)
Average temperature yesterday: 51 °F

High & Low Weather Summary for the Past Weeks

 TemperatureHumidityPressure
High70 °F (Feb 9, 2:00 PM)100% (Jan 28, 5:00 AM)30.66 "Hg (Jan 28, 5:00 AM)
Low19 °F (Jan 26, 7:00 AM)20% (Feb 9, 2:00 PM)30.01 "Hg (Feb 10, 4:00 AM)
Average37 °F72%30.36 "Hg
* Reported Jan 26 7:00 AM — Feb 10 7:00 AM, Nanjing, Weather by CustomWeather, © 2016

Note: Actual official high and low records may vary slightly from our data, if they occured in-between our weather recording intervals... More about our weather records

Advertising

Nanjing Weather History for the Previous 24 Hours

 ConditionsComfort  
Time TempWeatherWind HumidityBarometerVisibility
7:00 AM
Wed, Feb 10
41 °FFog.6 mph81%30.04 "Hg2 mi
6:00 AM43 °FFog.3 mph81%30.04 "Hg2 mi
5:00 AM41 °FFog.3 mph81%30.01 "Hg2 mi
4:00 AM45 °FFog.3 mph71%30.01 "Hg3 mi
3:00 AM41 °FFog.3 mph81%30.04 "Hg3 mi
2:00 AM43 °FFog.1 mph76%30.04 "Hg3 mi
1:00 AM41 °FClear.1 mph81%30.07 "Hg4 mi
12:00 AM43 °FClear.1 mph76%30.07 "Hg4 mi
11:00 PM
Tue, Feb 9
43 °FClear.3 mph81%30.07 "Hg4 mi
10:00 PM45 °FClear.1 mph66%30.09 "Hg5 mi
9:00 PM50 °FClear.1 mph54%30.09 "Hg5 mi
8:00 PM52 °FClear.6 mph50%30.09 "Hg5 mi
7:00 PM54 °FClear.8 mph47%30.09 "Hg6 mi
6:00 PM57 °FClear.3 mph39%30.09 "Hg10 mi
5:00 PM64 °FSunny.3 mph30%30.09 "Hg10 mi
4:00 PM68 °FPassing clouds.3 mph24%30.09 "HgN/A
3:00 PM70 °FPassing clouds.3 mph25%30.09 "HgN/A
2:00 PM70 °FSunny.8 mph20%30.09 "Hg10 mi
1:00 PM68 °FSunny.1 mph26%30.12 "Hg10 mi
12:00 PM64 °FClear.1 mph32%30.15 "Hg6 mi
11:00 AM61 °FClear.1 mph39%30.18 "Hg4 mi
10:00 AM54 °FClear.1 mph54%30.18 "Hg4 mi
9:00 AM45 °FFog.1 mph76%30.18 "Hg2 mi
Weather by CustomWeather, © 2016

See weather overviewHow to use our weather pages